Flag for U.S.A. Weather past 2 weeks in Tuba City, Arizona, U.S.A.

Now
64 °F

Scattered clouds.


Feels Like: 64 °F
Forecast: 39 / 72 °F
Wind: 8 mph from Southwest

Location: Grand Canyon National Park Airport

Current Time: Apr 19, 2015 at 3:49:12 PM

Latest Report: Apr 19, 2015 at 2:54 PM


Visibility: 10 mi

Pressure: 29.95 "Hg

Humidity: 15%

Dew point: 16 °F

Location of Tuba CityLocation

Historic Weather in Tuba City — Graph

°F

Tuba City temperature yesterday

Maximum temperature yesterday: 65 °F (at 3:54 PM)
Minimum temperature yesterday: 22 °F (at 6:54 AM)
Average temperature yesterday: 44 °F

Past Weeks' High & Low Weather Summary

 TemperatureHumidityPressure
High71 °F (Apr 13, 2:54 PM)96% (Apr 17, 1:54 AM)30.13 "Hg (Apr 17, 1:54 AM)
Low11 °F (Apr 16, 5:54 AM)5% (Apr 6, 1:54 PM)29.72 "Hg (Apr 5, 9:54 PM)
Average42 °F34%29.95 "Hg
* Reported Apr 4 1:54 PM — Apr 19 1:54 PM, Tuba City, Weather by CustomWeather, © 2015

Note: Actual official high and low records may vary slightly from our data, if they occured in-between our weather recording intervals... More about our weather records

Advertising

Tuba City weather history for previous 24 hours

 ConditionsComfort  
Time TempWeatherWind HumidityBarometerVisibility
1:54 PM
Sun, Apr 19
62 °FOvercast.3 mph17%29.97 "Hg10 mi
12:54 PM62 °FPartly sunny.5 mph19%29.99 "Hg10 mi
11:54 AM62 °FBroken clouds.9 mph20%30.00 "Hg10 mi
10:54 AM59 °FSunny.6 mph22%30.02 "Hg10 mi
9:54 AM58 °FSunny.9 mph25%30.00 "Hg10 mi
8:54 AM54 °FSunny.12 mph27%30.00 "Hg10 mi
7:54 AM35 °FSunny.No wind54%30.00 "Hg10 mi
6:54 AM28 °FSunny.3 mph64%30.00 "Hg10 mi
5:54 AM31 °FPassing clouds.No wind57%29.97 "Hg10 mi
4:54 AM33 °FOvercast.No wind52%29.96 "Hg10 mi
3:54 AM30 °FPassing clouds.No wind54%29.96 "Hg10 mi
2:54 AM27 °FClear.No wind55%29.99 "Hg10 mi
1:54 AM27 °FClear.No wind53%30.00 "Hg10 mi
12:54 AM29 °FClear.No wind51%29.99 "Hg10 mi
11:54 PM
Sat, Apr 18
31 °FClear.No wind47%29.98 "Hg10 mi
10:54 PM33 °FClear.No wind43%29.97 "Hg10 mi
9:54 PM36 °FClear.No wind38%29.96 "Hg10 mi
8:54 PM40 °FClear.No wind33%29.96 "Hg10 mi
7:54 PM58 °FSunny.6 mph15%29.93 "Hg10 mi
6:54 PM62 °FSunny.5 mph12%29.94 "Hg10 mi
5:54 PM63 °FSunny.7 mph12%29.93 "Hg10 mi
4:54 PM64 °FSunny.12 mph13%29.93 "Hg10 mi
3:54 PM65 °FSunny.13 mph14%29.94 "Hg10 mi
Weather by CustomWeather, © 2015

See weather overviewHow to use our weather pages